STARLINK-2088, 47371

Orbit data source: Space-Track

STARLINK-2088, 47371 is a payload satellite owned by SpaceX/Seattle (US) in LEO that was launched on Wed, 20 Jan 2021 UTC via an FALCON 9 launch vehicle from the Air Force Eastern Test Range (AFETR). Payload-class satellites include a variety of spacecraft equipped with specific instruments for various scientific and technological missions. These include communications satellites like Starlink; space stations such as the ISS; scientific satellites like the Hubble; Earth observation satellites from companies like Planet Labs, Umbra, and HawkEye 360; GPS; miniature CubeSats for education and research; and military/defense satellites.

Loading next visibility...
Identifier
47371, 2021-005Y
Orbit
LEO
Country
Flag of USUS
Related business
Manufacturer
SpaceX/Seattle
Mission
Operational Commercial Communications
Bus & Motor
STARLINK, Unknown motor
Mass
260 kg wet, ~248 kg dry
Launch date (UTC)
2021-01-20 (5 years ago)
Launch vehicle
FALCON 9
Launch site
Air Force Eastern Test Range (AFETR)
Object type
Payload
Rocket body
Debris
Shape & HBR
Box + 1 Pan, 10.1 m
Radar Cross Section
13.562 m², Large (>1 m²)

Expand to show TLE details & history
Last TLE update: 2 days ago

TLE from 2 days ago
0 STARLINK-2088
1 47371U 21005Y   26171.38112502  .00002547  00000-0  93812-4 0  9994
2 47371  53.1604 308.6111 0001042  87.4179 272.6942 15.31699002298700
Epoch: 2026-06-20T09:08Z
TLE epoch observation values (Epoch: 2026-06-20T09:08:49.201Z)
Latitude
-0.00001°
Longitude
-97.19048°
Altitude
471.61 km
Speed
7.631 km/s
True Right ascension
20h 34m 26s
True Declination
0° 00' 00"
Sunlit
Object was in full shadow at epoch
Visualization orbit readout
Latitude
Unknown
Longitude
Unknown
Altitude
Unknown
Speed
Unknown
Apparent Right ascension
Unknown
Apparent Declination
Unknown
Sunlit
N/A
Visualization observer readout
Local Sidereal Time
00:27:30
Azimuth
Unknown
Elevation
Unknown
Doppler factor
Unknown
Orbital elements
Apogee altitude
471.713 km
Perigee altitude
470.286 km
Semi-major axis
6,849.136 km
Eccentricity
0.0001
Inclination
53.1604°
RAAN
308.6111°
Arg. of periapsis
87.4179°
True anomaly
272.68227°
Mean anomaly
272.6942°
Eccentric anomaly
272.68824°
Mean motion
3.82904 °/min
Orbital period
94.02 mins
BSTAR
0.000093812
Loading maneuver chart data...
Computing Atmospheric mass density...

Documentation

Showing up to 5 results
|